Cloud_Cover
5 5 5 5 28 46 99 100 100 100 100 100 100 100 100 100 99 99 100 100 100 100
4 5 5 16 47 91 96 62 99 100 100 100 100 100 100 99 100 100 100 100 100 100
5 5 9 26 70 82 64 86 100 99 100 100 100 100 100 100 100 100 100 100 100 100
5 5 13 58 80 91 84 99 99 83 88 100 100 100 69 100 100 100 100 100 100 100
5 11 78 90 80 83 81 88 100 80 94 100 90 94 79 100 100 100 100 100 100 100
13 81 90 87 75 94 94 89 100 85 91 100 90 97 94 100 100 100 100 100 100 100
66 66 80 86 88 93 96 93 97 87 99 100 99 100 100 100 100 100 100 100 100 100
68 32 79 91 86 86 97 93 97 88 98 99 100 99 100 100 100 100 100 98 100 100
62 74 80 95 94 72 96 96 100 100 100 100 100 100 100 100 99 100 100 100 100 100
87 83 78 100 77 80 98 99 100 99 100 100 100 100 100 100 98 100 100 100 100 100
89 78 97 100 94 85 100 100 100 100 100 98 100 100 100 100 100 100 100 100 100 100
91 78 100 100 100 100 100 100 100 100 100 100 100 100 100 100 100 100 100 100 100 100
90 80 100 100 100 100 100 100 100 100 100 100 100 100 100 100 100 100 100 100 100 100
75 81 100 100 100 100 100 100 100 100 100 100 100 100 100 100 100 100 100 100 100 100